This is the latest recevied weather packets stored in our database for station/object KD5BIG-13. If no packets are shown the sender has not sent any weather packets the latest 10 day(s).
| Time | Temp. | Humidity | Pressure | Rain* | Wind** | Luminosity | Snow |
|---|---|---|---|---|---|---|---|
| 1777676272 | 11.11° C | 98% | 1017.8 hPa | 7.87 mm | - | 10 W/m² | - |
| 1777675970 | 11.11° C | 98% | 1017.3 hPa | 6.1 mm | - | 10 W/m² | - |
| 1777675665 | 11.11° C | 98% | 1016.7 hPa | 4.32 mm | - | 16 W/m² | - |
| 1777675363 | 11.11° C | 98% | 1016.1 hPa | 3.56 mm | - | 22 W/m² | - |
| 1777675059 | 11.11° C | 97% | 1016 hPa | 4.32 mm | - | 19 W/m² | - |
| 1777674756 | 11.11° C | 97% | 1015.6 hPa | 4.83 mm | - | 19 W/m² | - |
| 1777674452 | 11.11° C | 97% | 1015.1 hPa | 5.33 mm | - | 22 W/m² | - |
| 1777674150 | 11.11° C | 97% | 1015.1 hPa | 4.83 mm | - | 22 W/m² | - |
| 1777673846 | 11.11° C | 97% | 1014.8 hPa | 4.83 mm | - | 21 W/m² | - |
| 1777673543 | 11.11° C | 97% | 1015.1 hPa | 6.6 mm | - | 23 W/m² | - |
| 1777673240 | 11.11° C | 97% | 1015.3 hPa | 8.89 mm | - | 24 W/m² | - |
| 1777672937 | 11.11° C | 97% | 1015.5 hPa | 7.87 mm | - | 22 W/m² | - |
| 1777672635 | 11.11° C | 97% | 1015.4 hPa | 7.87 mm | - | 20 W/m² | - |
| 1777672330 | 11.11° C | 97% | 1015.6 hPa | 9.65 mm | - | 20 W/m² | - |
| 1777672025 | 11.11° C | 97% | 1015.5 hPa | 7.11 mm | - | 19 W/m² | - |
| 1777671721 | 11.11° C | 97% | 1015.8 hPa | 7.11 mm | - | 19 W/m² | - |
| 1777671417 | 11.11° C | 97% | 1015.5 hPa | 7.87 mm | - | 18 W/m² | - |
| 1777671113 | 11.11° C | 96% | 1015.6 hPa | 7.87 mm | - | 20 W/m² | - |
| 1777670810 | 11.11° C | 96% | 1015.8 hPa | 8.89 mm | - | 21 W/m² | - |
| 1777670507 | 11.11° C | 96% | 1015.5 hPa | 8.38 mm | - | 23 W/m² | - |
| 1777670204 | 11.11° C | 96% | 1015.7 hPa | 7.87 mm | - | 22 W/m² | - |
| 1777669901 | 11.67° C | 96% | 1016 hPa | 8.38 mm | - | 23 W/m² | - |
| 1777669598 | 11.67° C | 96% | 1016.1 hPa | 9.65 mm | - | 20 W/m² | - |
| 1777669295 | 11.67° C | 96% | 1016.3 hPa | 10.16 mm | - | 23 W/m² | - |
| 1777668991 | 11.67° C | 96% | 1016.3 hPa | 7.87 mm | - | 23 W/m² | - |
* Rain latest hour (hover to see other rain measurements)
** Current wind speed in m/s (hover to see current wind gust speed)